This demonstration page uses our WeatherBlox Daily Observations layout. Learn more.

Left ArrowRight Arrow

39.51506, -84.39828

Hourly Observations for November 4, 2020

Temp ( °F °C ) Dew Point ( °F °C ) Humidity (%) Winds ( mph kmh ) Pressure ( in mb ) Visibility ( mi km ) Precip ( " mm )
12:15 am 00:15 Clear 38 3.5 37 2.8 95 95 Calm 30.28 1025 10 16.0934 0 0
12:35 am 00:35 Clear 39 3.7 37 2.9 95 95 Calm 30.28 1025 10 16.0934 0 0
12:55 am 00:55 Clear 39 3.7 38 3.5 99 99 Calm 30.29 1026 10 16.0934 0 0
1:15 am 01:15 Clear 38 3.5 38 3.1 97 97 Calm 30.29 1026 10 16.0934 0 0
1:35 am 01:35 Clear 38 3.2 37 3 99 99 Calm 30.29 1026 10 16.0934 0 0
1:55 am 01:55 Clear 37 3 37 3 100 100 Calm 30.29 1026 10 16.0934 0 0
2:15 am 02:15 Clear 37 3 37 3 100 100 Calm 30.3 1026 10 16.0934 0 0
2:35 am 02:35 Clear 36 2 34 1 93 93 Calm 30.3 1026 10 16.0934 0 0
2:55 am 02:55 Clear 37 3 N/A N/A Calm 30.3 1026 10 16.0934 0 0
3:15 am 03:15 Clear 36 2 N/A N/A Calm 30.3 1026 10 16.0934 0 0
3:35 am 03:35 Clear with Mist and Fog 36 2 36 2 100 100 Calm 30.3 1026 3 4.82802 0 0
3:55 am 03:55 Clear with Mist and Fog 36 2 N/A N/A Calm 30.29 1026 3 4.82802 0 0
4:15 am 04:15 Clear 34 1 N/A N/A Calm 30.3 1026 10 16.0934 0 0
4:35 am 04:35 Clear 34 1 N/A N/A Calm 30.3 1026 10 16.0934 0 0
4:55 am 04:55 Clear 36 2 N/A N/A Calm 30.31 1026 10 16.0934 0 0
5:15 am 05:15 Clear 36 2 N/A N/A Calm 30.31 1026 10 16.0934 0 0
5:35 am 05:35 Clear with Mist and Fog 32 0 N/A N/A Calm 30.33 1027 4 6.43736 0 0
5:55 am 05:55 Mostly Cloudy with Mist and Fog 34 1 N/A N/A Calm 30.33 1027 1.25 2.011675 0 0
6:15 am 06:15 Clear with Mist and Fog 34 1 N/A N/A Calm 30.33 1027 3.5 5.63269 0 0
6:35 am 06:35 Clear 34 1 N/A N/A Calm 30.33 1027 7 11.26538 0 0
6:55 am 06:55 Hazy 34 1 N/A N/A Calm 30.33 1027 7 11.26538 0 0
7:15 am 07:15 Sunny 32 0 N/A N/A WSW 3 6 30.35 1028 10 16.0934 0 0
7:35 am 07:35 Hazy 36 2 N/A N/A Calm 30.34 1027 7 11.26538 0 0
7:55 am 07:55 Sunny 36 2 N/A N/A WSW 3 6 30.35 1028 10 16.0934 0 0
8:15 am 08:15 Sunny 39 4 N/A N/A WSW 3 6 30.35 1028 10 16.0934 0 0
8:35 am 08:35 Sunny 46 7.7 40 4.7 82 82 WSW 5 7 30.34 1028 10 16.0934 0 0
8:55 am 08:55 Sunny 48 9.1 40 4.4 73 73 WSW 3 6 30.34 1027 10 16.0934 0 0
9:15 am 09:15 Sunny 50 10 40 4.5 69 69 Calm 30.35 1028 10 16.0934 0 0
9:35 am 09:35 Sunny 53 11.6 41 4.8 63 63 WSW 5 7 30.35 1028 10 16.0934 0 0
9:55 am 09:55 Sunny 55 13 40 4.6 57 57 SW 10 17 30.34 1027 10 16.0934 0 0
10:15 am 10:15 Sunny 57 13.8 41 4.8 55 55 WSW 10 17 30.33 1027 10 16.0934 0 0
10:35 am 10:35 Sunny 58 14.5 40 4.6 52 52 SW 9 15 30.33 1027 10 16.0934 0 0
10:55 am 10:55 Sunny 60 15.3 41 5 50 50 SW 9 15 30.33 1027 10 16.0934 0 0
11:15 am 11:15 Sunny 61 16.3 42 5.7 50 50 WSW 9 15 30.31 1027 10 16.0934 0 0
11:35 am 11:35 Sunny 62 16.9 42 5.5 47 47 SW 12 19 30.31 1026 10 16.0934 0 0
11:55 am 11:55 Sunny 64 17.7 43 6 46 46 SSW 13 20 30.3 1026 10 16.0934 0 0
12:15 pm 12:15 Sunny 65 18.4 43 6 44 44 SSW 14 22 30.29 1026 10 16.0934 0 0
12:35 pm 12:35 Sunny 66 18.9 43 6.2 44 44 SW 14 22 30.29 1026 10 16.0934 0 0
12:55 pm 12:55 Sunny 67 19.6 43 6.3 42 42 SW 14 22 30.28 1025 10 16.0934 0 0
1:15 pm 13:15 Sunny 69 20.3 43 6.3 40 40 SW 13 20 30.26 1025 10 16.0934 0 0
1:35 pm 13:35 Sunny 70 21 42 5.6 37 37 SW 13 20 30.26 1025 10 16.0934 0 0
1:55 pm 13:55 Sunny 71 21.4 42 5.3 35 35 WSW 16 26 30.25 1024 10 16.0934 0 0
2:15 pm 14:15 Sunny 71 21.6 42 5.4 35 35 WSW 18 30 30.25 1024 10 16.0934 0 0
2:35 pm 14:35 Sunny 71 21.6 42 5.3 35 35 WSW 16 26 30.24 1024 10 16.0934 0 0
2:55 pm 14:55 Sunny 71 21.5 41 5.1 34 34 WSW 13 20 30.24 1024 10 16.0934 0 0
3:15 pm 15:15 Sunny 71 21.6 41 5.2 34 34 WSW 13 20 30.24 1024 10 16.0934 0 0
3:35 pm 15:35 Sunny 71 21.6 42 5.8 36 36 WSW 14 22 30.24 1024 10 16.0934 0 0
3:55 pm 15:55 Sunny 70 21.3 42 5.5 36 36 SW 10 17 30.24 1024 10 16.0934 0 0
4:15 pm 16:15 Sunny 70 21 43 6.2 38 38 SW 7 11 30.25 1024 10 16.0934 0 0
4:35 pm 16:35 Sunny 69 20.6 42 5.5 37 37 SW 10 17 30.25 1024 10 16.0934 0 0
4:55 pm 16:55 Sunny 68 19.9 42 5.7 40 40 SW 12 19 30.24 1024 10 16.0934 0 0
5:15 pm 17:15 Sunny 66 19 42 5.5 41 41 SW 6 9 30.25 1024 10 16.0934 0 0
5:35 pm 17:35 Clear 65 18.2 42 5.5 43 43 SSW 8 13 30.25 1024 10 16.0934 0 0
5:55 pm 17:55 Clear 64 17.7 42 5.5 45 45 SSW 9 15 30.25 1024 10 16.0934 0 0
6:15 pm 18:15 Clear 64 17.5 42 5.3 45 45 SW 8 13 30.26 1025 10 16.0934 0 0
6:35 pm 18:35 Clear 62 16.4 41 5.2 48 48 SW 7 11 30.26 1025 10 16.0934 0 0
6:55 pm 18:55 Clear 57 14 42 5.4 56 56 SW 7 11 30.27 1025 10 16.0934 0 0
7:15 pm 19:15 Clear 61 16.2 42 5.5 49 49 SSW 8 13 30.27 1025 10 16.0934 0 0
7:35 pm 19:35 Clear 56 13.4 42 5.7 60 60 SW 7 11 30.28 1025 10 16.0934 0 0
7:55 pm 19:55 Clear 55 12.5 42 5.6 63 63 WSW 6 9 30.28 1025 10 16.0934 0 0
8:15 pm 20:15 Clear 53 11.6 42 5.6 67 67 WSW 5 7 30.3 1026 10 16.0934 0 0
8:35 pm 20:35 Clear 54 12 42 5.5 65 65 SW 7 11 30.28 1026 10 16.0934 0 0
8:55 pm 20:55 Clear 56 13.5 42 5.8 60 60 SW 6 9 30.29 1026 10 16.0934 0 0
9:15 pm 21:15 Clear 54 12.2 42 5.5 64 64 SW 6 9 30.29 1026 10 16.0934 0 0
9:35 pm 21:35 Clear 52 11.2 43 5.9 70 70 Calm 30.3 1026 10 16.0934 0 0
9:55 pm 21:55 Clear 52 11.2 42 5.8 70 70 Calm 30.3 1026 10 16.0934 0 0
10:15 pm 22:15 Clear 50 9.9 43 6.3 79 79 Calm 30.31 1026 10 16.0934 0 0
10:35 pm 22:35 Clear 49 9.4 43 5.9 79 79 Calm 30.31 1026 10 16.0934 0 0
10:55 pm 22:55 Clear 49 9.2 43 6 81 81 Calm 30.31 1026 10 16.0934 0 0
11:15 pm 23:15 Clear 49 9.7 42 5.6 76 76 W 3 6 30.31 1026 10 16.0934 0 0
11:35 pm 23:35 Clear 45 7.4 42 5.4 87 87 Calm 30.32 1027 10 16.0934 0 0
11:55 pm 23:55 Clear 46 7.5 43 6 90 90 Calm 30.32 1027 10 16.0934 0 0

Powered by AerisWeather